Weather in Luboml

Ukraine / Volyn Oblast     51˚13′25″N   24˚01′58″E
temp.,
°C
wind,
m/s
gust,
m/s
humid.,
%
clouds,
%
prec.,
mm/h
press.,
hPa
HPBL,
m
3 december, thu
thu323:00−4˚se489584 0.0 1024270
02:00−2˚se478488 0.1 1023607
05:00−3˚se378795 0.0 1021223
08:00−3˚se5129165 0.0 1020380
11:00se6118161 0.0 1019517
14:00+1˚se6127979 0.0 1017588
17:00se6148772 0.0 1016487
20:00se7158878 0.0 1015473
4 december, fri
fri423:00se7158989 0.0 1015460
02:00+1˚se7159095 0.0 1013431
05:00+1˚se71490100 0.0 1012447
08:00+1˚se7149098 0.0 1012515
11:00+2˚se8148449 0.0 1011531
14:00+5˚se7148226 0.0 1011591
17:00+3˚se715890 0.0 1011448
20:00+4˚se715891 0.0 1011420
5 december, sat
sat523:00+4˚se714902 0.0 1011347
02:00+4˚se615921 0.0 1012372
05:00+5˚se615938 0.0 1012429
08:00+4˚se5139318 0.0 1014371
11:00+7˚se7158937 0.0 1014611
14:00+9˚se7128154 0.0 1015653
17:00+8˚se7158523 0.0 1015568
20:00+7˚se7168816 0.0 1017589
6 december, sun
sun623:00+6˚se8168740 0.0 1017626
02:00+6˚se8168565 0.0 1018619
05:00+5˚se81685100 0.0 1018610
08:00+4˚se9158295 0.0 1019704
11:00+4˚se101577100 0.0 1019807
14:00+4˚se101474100 0.0 1019840
17:00+2˚se91676100 0.0 1018821
20:00+1˚se101776100 0.0 1018827
7 december, mon
mon723:00+1˚se101675100 0.0 1018917
02:00+1˚se101673100 0.0 1017921
05:00+1˚se101676100 0.0 1017897
08:00+2˚se101677100 0.0 1017899
11:00+4˚se101673100 0.0 1017925
14:00+3˚se91576100 0.0 1017802
17:00+3˚se81482100 0.8 1017724
20:00+2˚se81392100 1.4 1018512